Regional Weather Roundup
Issued by NWS

Home | Current Version | Previous Version | Graphics & Text | Print | Product List | Glossary On
Versions: 1 2 3 4 5 6 7 8 9 10 11 12 13 14 15 16 17 18 19 20 21 22 23 24 25 26 27 28 29 30 31 32 33 34 35 36 37 38 39 40 41 42 43 44 45 46 47 48 49 50
000
ASUS45 KBOU 011207
RWRCO

WEATHER ROUNDUP FOR COLORADO
NATIONAL WEATHER SERVICE DENVER/BOULDER CO
500 AM MST SUN MAR 01 2015

NOTE: "FAIR" INDICATES FEW OR NO CLOUDS BELOW 12000 FEET WITH NO
SIGNIFICANT WEATHER AND/OR OBSTRUCTIONS TO VISIBILITY.

COZ001>005-013-030-031-011300-
...NORTHWEST COLORADO...

CITY           SKY/WX    TMP DP  RH WIND       PRES   REMARKS
CRAIG          CLOUDY    19  16  88 CALM      30.05R
HAYDEN         MOCLDY    19  14  79 CALM      30.03R
MEEKER         CLOUDY    25  21  85 NE3       30.01R
MOUNT WERNER   NOT AVBL
STEAMBOAT SPGS CLOUDY    20  18  92 CALM      30.02R
WALDEN         MOCLDY     9   3  78 N7        29.96R WCI  -3
$$

COZ006>008-011-011300-
...WEST CENTRAL VALLEYS...

CITY           SKY/WX    TMP DP  RH WIND       PRES   REMARKS
GRAND JUNCTION CLOUDY    31  29  92 SE5       30.01R WCI  26
MONTROSE       CLOUDY    28  27  96 SE8       30.04R WCI  20
EAGLE          MOCLDY    27  27 100 E7        30.02R WCI  19
RIFLE          CLOUDY    30  26  85 E3        30.01R
DELTA          CLOUDY    33  32  94 E5        30.04R WCI  29
NUCLA          MOCLDY    30  30 100 SE6       30.06R WCI  24
$$

COZ017>023-064>068-011300-
...SOUTHWEST COLORADO...

CITY           SKY/WX    TMP DP  RH WIND       PRES   REMARKS
DURANGO        LGT SNOW  29  28  96 N6        30.04R FOG     WCI  23
CORTEZ         LGT SNOW  30  29  96 E7        30.02R FOG     WCI  23
PAGOSA SPRINGS LGT SNOW  31  31 100 CALM      30.05R
TELLURIDE      CLOUDY    26  23  91 S6        30.03R WCI  19
WOLF CREEK PAS CLOUDY    16  16 100 SW15G25   30.03R WCI   1
$$

COZ009-010-012-014-032>034-037-058>063-011300-
...CENTRAL COLORADO...

CITY           SKY/WX    TMP DP  RH WIND       PRES   REMARKS
ASPEN          CLOUDY    25  23  92 SW3       29.98R
BUENA VISTA    CLOUDY    18  15  89 E5        29.99R WCI  11
COPPER MTN     LGT SNOW  18  10  73 W21       29.94R WCI   1
BERTHOUD PASS  SNOW       9   3  78 NW23G29   29.91R VSB 1/2 WCI -12
COTTONWOOD PAS CLOUDY    25  19  80 CALM      29.96R
GUNNISON       MOCLDY    16  14  93 N6        30.03R WCI   7
KREMMLING      LGT SNOW  25  21  86 CALM      29.98R
LEADVILLE      LGT SNOW  14  12  92 NE6       29.95R FOG     WCI   5
SALIDA         PTCLDY    17  13  87 CALM      30.07R
SUNLIGHT       LGT SNOW  21  18  86 CALM        N/A
WILKERSON PASS MOCLDY    14  12  92 SW7       29.97R WCI   4
$$

COZ069>075-011300-
...SAN LUIS VALLEY/SANGRE DE CRISTO MOUNTAINS...

CITY           SKY/WX    TMP DP  RH WIND       PRES   REMARKS
ALAMOSA        CLOUDY    13  11  92 W3        30.04R
LA VETA PASS   MOCLDY    23  21  93 S17G28    29.98R WCI   9
SAGUACHE       CLOUDY    19  14  79 N8        30.03R WCI   9
$$

COZ035-036-038>040-011300-
...NORTHERN COLORADO FRONT RANGE...

CITY           SKY/WX    TMP DP  RH WIND       PRES   REMARKS
DENVER INTL AP MOCLDY    12   7  80 SW7       30.09R HAZE    WCI   1
DMNS CITY PARK   N/A     16  11  81 S2        30.11R
AURORA         CLOUDY    11   8  87 SW5       30.09R WCI   2
FRONT RANGE AP NOT AVBL
ERIE MUNI ARPT MOCLDY    17  16  93 CALM      30.11R FOG
BOULDER MUN AP MOCLDY    19  18  93 CALM      30.10R FOG
CENTENNIAL     CLOUDY     9   6  88 W5        30.07R FOG     WCI   1
BROOMFIELD     LGT SNOW  21  18  86 NW6       30.09R WCI  14
FORT COLLINS   PTCLDY    18  12  79 CALM      30.12R
LONGMONT       CLOUDY    20  18  91 CALM      30.13R
$$

COZ041-046-047-076>085-087-088-011300-
...PIKES PEAK/PALMER DIVIDE AND SOUTHERN FOOTHILLS...

CITY           SKY/WX    TMP DP  RH WIND       PRES   REMARKS
COLO. SPRINGS  MOCLDY    11   8  88 N6        30.02R FOG     WCI   1
A. F. ACADEMY  PTCLDY     6   2  85 N10       30.00R WCI  -9
ELLICOTT       NOT AVBL
FALCON         PTCLDY    10   8  89 N12       29.99S WCI  -4
FORT CARSON    PTCLDY     8   4  86 N7        30.03R WCI  -3
LIMON          PTCLDY     6   2  83 VRB5      30.08R WCI  -3
MONUMENT HILL  LGT SNOW   7   5  92 NW3       30.01R
TRINIDAD       CLOUDY    16  13  88 CALM      30.03S
$$

COZ042>045-048>051-090-091-011300-
...NORTHEAST COLORADO...

CITY           SKY/WX    TMP DP  RH WIND       PRES   REMARKS
GREELEY ARPT   PTCLDY    16   9  73 CALM      30.11S
AKRON          MOCLDY    16  14  92 NW6       30.11R WCI   7
BURLINGTON     CLOUDY    20  14  77 W7        30.13R WCI  11
WRAY           CLOUDY    19  17  90 CALM      30.17R
STERLING       PTCLDY    14  12  92 CALM      30.15R
HOLYOKE        NOT AVBL
FORT MORGAN    PTCLDY    15  12  89 N8        30.13S WCI   4
$$

COZ086-089-092>099-011300-
...SOUTHEAST COLORADO...

CITY           SKY/WX    TMP DP  RH WIND       PRES   REMARKS
PUEBLO         PTCLDY    10   7  87 CALM      30.10R
LA JUNTA       MOCLDY    12   8  84 NW5       30.13R WCI   4
LAMAR          MOCLDY    17  15  92 W5        30.14R FOG     WCI  10
SPRINGFIELD      N/A     16  14  92 N5        30.09S WCI   9
$$


USA.gov is the U.S. government's official web portal to all federal, state and local government web resources and services.